Weather History for Point Lay, AK

Change the Weather History Date:

Thursday, January 26, 2012

  Actual Average Record
Temperature  
Mean Temperature -42 °F -  
Max Temperature -40 °F -8 °F 21 °F (1998)
Min Temperature -45 °F -20 °F -45 °F (2002)
Degree Days  
Heating Degree Days 108    
Moisture  
Dew Point -    
Average Humidity    
Maximum Humidity    
Minimum Humidity    
Precipitation  
Precipitation 0.00 in - - ()
Sea Level Pressure  
Sea Level Pressure 30.15 in    
Wind  
Wind Speed 4 mph (NE)    
Max Wind Speed 8 mph    
Max Gust Speed -    
Visibility 8 miles    
Events      
Averages and records for this station are not official NWS values.
T = Trace of Precipitation, MM = Missing Value Source: NWS Daily Summary

Daily Weather History Graph

Daily Weather History Graph

Search for Another Location

Airport:

Trip Planner

Search our weather history database for the weather conditions in past years. The results will help you decide how hot, cold, wet, or windy it might be!

Date:

Astronomy

Jan. 26, 2012 Rise Set
Actual Time 12:07 PM AKST 4:02 PM AKST
Civil Twilight 10:31 AM AKST 5:38 PM AKST
Nautical Twilight 9:10 AM AKST 6:59 PM AKST
Astronomical Twilight 7:59 AM AKST 8:11 PM AKST
Moon 10:39 AM AKST (1/26) 11:27 PM AKST (1/26)
Length of Visible Light 7h 07m
Length of Day
3h 55m
Waxing Crescent, 13% of the Moon is Illuminated
Jan 26
Waxing Crescent
Jan 30
First Quarter
Feb 7
Full
Feb 14
Last Quarter
Feb 21
New

Hourly Weather History & Observations

Time (AKST) Temp. Windchill Dew Point Humidity Pressure Visibility Wind Dir Wind Speed Gust Speed Precip Events Conditions
12:56 AM -44.9 °F - - N/A% 30.05 in 10.0 mi Calm Calm - N/A   Clear
1:56 AM -44.0 °F - - N/A% 30.06 in 10.0 mi Calm Calm - N/A   Clear
2:56 AM -45.4 °F - - N/A% 30.04 in 10.0 mi Calm Calm - N/A   Clear
3:56 AM -44.9 °F -62.3 °F - N/A% 30.06 in 10.0 mi NE 4.6 mph - N/A   Clear
4:56 AM -42.9 °F -56.8 °F - N/A% 30.05 in 10.0 mi ENE 3.5 mph - N/A   Clear
5:56 AM -42.9 °F -56.8 °F - N/A% 30.05 in 10.0 mi ENE 3.5 mph - N/A   Clear
6:56 AM -42.0 °F -61.4 °F - N/A% 30.06 in 10.0 mi ENE 5.8 mph - N/A   Clear
7:56 AM -42.9 °F -62.5 °F - N/A% 30.06 in 8.0 mi NE 5.8 mph - N/A   Clear
8:56 AM -40.0 °F -56.6 °F - N/A% 30.08 in 6.0 mi ENE 4.6 mph - N/A   Haze
9:56 AM -40.9 °F -60.1 °F - N/A% 30.09 in 9.0 mi NE 5.8 mph - N/A   Clear
10:56 AM -40.9 °F -62.2 °F - N/A% 30.11 in 6.0 mi NE 6.9 mph - N/A   Haze
11:56 AM -42.9 °F -66.4 °F - N/A% 30.12 in 5.0 mi NE 8.1 mph - N/A   Haze
12:56 PM -42.0 °F -65.3 °F - N/A% 30.14 in 5.0 mi NE 8.1 mph - N/A   Haze
1:56 PM -42.0 °F -63.5 °F - N/A% 30.16 in 4.0 mi NE 6.9 mph - N/A   Haze
2:56 PM -40.9 °F -64.0 °F - N/A% 30.17 in 5.0 mi NE 8.1 mph - N/A   Haze
3:56 PM -42.0 °F -65.3 °F - N/A% 30.19 in 4.0 mi NE 8.1 mph - N/A   Haze
4:56 PM -42.0 °F -63.5 °F - N/A% 30.20 in 10.0 mi NE 6.9 mph - N/A   Clear
5:56 PM -42.0 °F -65.3 °F - N/A% 30.22 in 10.0 mi NE 8.1 mph - N/A   Clear
6:56 PM -42.9 °F -64.6 °F - N/A% 30.24 in 10.0 mi NE 6.9 mph - N/A   Clear
7:56 PM -42.9 °F -64.6 °F - N/A% 30.25 in 10.0 mi NE 6.9 mph - N/A   Clear
8:56 PM -42.9 °F -62.5 °F - N/A% 30.27 in 10.0 mi NE 5.8 mph - N/A   Clear
9:56 PM -44.0 °F -61.2 °F - N/A% 30.30 in 10.0 mi NNE 4.6 mph - N/A   Clear
10:56 PM -42.9 °F -64.6 °F - N/A% 30.30 in 10.0 mi NNE 6.9 mph - N/A   Clear
11:56 PM -44.0 °F -58.1 °F - N/A% 30.32 in 10.0 mi NNE 3.5 mph - N/A   Clear